Regional Weather Roundup
Issued by NWS

Home | Current Version | Previous Version | Graphics & Text | Print | Product List | Glossary On
Versions: 1 2 3 4 5 6 7 8 9 10 11 12 13 14 15 16 17 18 19 20 21 22 23 24 25 26 27 28 29 30 31 32 33 34 35 36 37 38 39 40 41 42 43 44 45 46 47 48 49 50
000
ASUS43 KMPX 030210
RWRMN
WEATHER ROUNDUP FOR MINNESOTA
NATIONAL WEATHER SERVICE TWIN CITIES/CHANHASSEN MN
900 PM CDT TUE JUN 02 2015


NOTE: "FAIR" INDICATES FEW OR NO CLOUDS BELOW 12,000 FEET WITH NO
SIGNIFICANT WEATHER AND/OR OBSTRUCTIONS TO VISIBILITY. N/A MEANS
CURRENT SKY AND/OR WEATHER CONDITIONS ARE NOT AVAILABLE.

MNZ060>063-068>070-030300-
   Twin Cities Metro

CITY           SKY/WX    TMP DP  RH WIND       PRES   REMARKS
TWIN CITIES    PTCLDY    72  52  49 SE13      29.91R
ST PAUL        MOCLDY    70  53  54 SE13      29.91F
CRYSTAL        PTCLDY    72  53  51 SE12      29.89S
BLAINE         PTCLDY    73  54  49 SE14      29.90S
LAKEVILLE      PTCLDY    70  52  52 SE7       29.91S
EDEN PRAIRIE   PTCLDY    70  51  51 S8        29.89S
SOUTH ST PAUL  MOCLDY    72  51  48 SE8       29.91S
LAKE ELMO      FAIR      70  52  52 SE6       29.93S
$$
MNZ001>005-007-008-013>017-022>024-027-028-030300-
   Northwest Minnesota

CITY           SKY/WX    TMP DP  RH WIND       PRES   REMARKS
BEMIDJI        MOCLDY    67  53  61 SE10      29.81S
HALLOCK        MOCLDY    61  61 100 E6        29.79S
ROSEAU         LGT RAIN  61  55  82 E7        29.81F
WARROAD        RAIN      59  55  88 SE3       29.84S
THIEF RVR FALL CLOUDY    64  61  88 NE10      29.77F
CROOKSTON      MOCLDY    66  63  88 NE7       29.75S
FOSSTON        CLOUDY    66  57  72 SE6       29.77F
DETROIT LAKES  LGT RAIN  70  59  68 SE9       29.78S
MOORHEAD       CLOUDY    75  63  64 SE14      29.71S
PARK RAPIDS    MOCLDY    69  54  58 SE10      29.81S
MAHNOMEN       CLOUDY    68  56  65 SE12G17   29.75S
$$
MNZ006-009>011-018-025>026-030300-
   North Central Minnesota

CITY           SKY/WX    TMP DP  RH WIND       PRES   REMARKS
BAUDETTE       CLOUDY    60  58  92 N6        29.84R
FLAG ISLAND    LGT RAIN  59  57  94 S5        29.83R
INTL FALLS     LGT RAIN  60  57  89 SE7       29.86S
WASKISH        CLOUDY    64  57  77 CALM      29.82S
BIG FORK       CLOUDY    64  54  68 S8        29.85F
LONGVILLE      MOCLDY    66  54  63 SE5       29.85S
GRAND RAPIDS   CLOUDY    64  52  63 SE8       29.88S
CRANE LAKE     CLOUDY    68  48  49 S5        29.88R THUNDER
ORR            CLOUDY    68  46  45 S3        29.85R
COOK           LGT RAIN  68  52  56 S9        29.88S
WALKER         FAIR      64  54  68 SE6       29.83R
$$
MNZ012-019>021-037-030300-
   Northeast Minnesota

CITY           SKY/WX    TMP DP  RH WIND       PRES   REMARKS
DULUTH         CLOUDY    56  41  57 SE8       29.94S
ELY            CLOUDY    68  46  45 S9        29.90S
HIBBING        CLOUDY    64  55  72 S6        29.89F
EVELETH        CLOUDY    64  50  59 S8        29.91F
DULUTH HARBOR  CLOUDY    48  43  81 NE6       29.96S
TWO HARBORS    CLOUDY    61  48  63 CALM      29.92S
SILVER BAY     CLOUDY    57  41  54 CALM      29.93R
GRAND MARAIS     N/A     53  40  61 NE3       29.95S
G MARAIS ARPRT CLOUDY    54  37  54 E3        29.97F
$$
MNZ029>031-032-039>041-046>048-054>057-064-030300-
   West Central Minnesota

CITY           SKY/WX    TMP DP  RH WIND       PRES   REMARKS
FERGUS FALLS   CLOUDY    75  59  57 S13       29.76R
WHEATON        PTCLDY    75  61  60 SE12      29.76R
MORRIS         MOCLDY    75  59  57 S13       29.78R
ALEXANDRIA     CLOUDY    72  55  55 SE12      29.83R
ELBOW LAKE     CLOUDY    74  58  58 SE15      29.77R
WADENA         CLOUDY    72  52  49 SE12      29.81S
GLENWOOD       MOCLDY    72  57  60 S13       29.83S
APPLETON       CLEAR     77  57  50 S9        29.78R
BENSON         MOCLDY    75  55  50 S14G20    29.80R
ORTONVILLE     CLEAR     75  61  60 S8        29.77R
MADISON        CLEAR     75  59  57 S15       29.77S
WILLMAR        FAIR      75  55  50 S10G22    29.84S
$$
MNZ033>034-036-042>043-049>051-058-059-030300-
   Central Minnesota

CITY           SKY/WX    TMP DP  RH WIND       PRES   REMARKS
ST CLOUD       CLEAR     70  52  52 SE12      29.85F
SAUK CENTRE    FAIR      71  52  51 SE13      29.83S
PAYNESVILLE    PTCLDY    70  48  45 SE8G16    29.85S
AITKIN         CLOUDY    68  54  60 SE6       29.85F
PINE RIVER     MOCLDY    66  55  68 SE7       29.88S
BRAINERD       PTCLDY    67  54  63 SE8       29.85F
STAPLES        MOCLDY    72  48  43 S6        29.83R
LONG PRAIRIE   FAIR      70  50  49 SE12      29.84S
LITTLE FALLS   PTCLDY    70  50  49 SE9       29.84S
LITCHFIELD     CLEAR     73  52  46 SE8       29.86S
BUFFALO        CLEAR     70  50  48 SE8       29.89R
MAPLE LAKE     CLEAR     72  54  54 SE5       29.87F
$$
MNZ037-044-045-052-053-030300-
   East Central Minnesota

CITY           SKY/WX    TMP DP  RH WIND       PRES   REMARKS
PRINCETON      PTCLDY    72  54  53 SE8       29.88S
MORA           MOCLDY    66  52  59 SE8       29.90F
CAMBRIDGE      MOCLDY    72  55  56 SE8       29.87F
RUSH CITY      MOCLDY    67  53  59 SE9       29.91S
MOOSE LAKE     CLOUDY    66  52  59 SE5       29.89F
HINCKLEY       FAIR      68  54  60 SE7       29.91S
CLOQUET        RAIN      55  43  62 E3        29.94R
MCGREGOR       CLOUDY    66  54  63 SE9       29.89S
$$
MNZ071>073-080-081-089-090-097-098-030300-
   Southwest Minnesota

CITY           SKY/WX    TMP DP  RH WIND       PRES   REMARKS
MONTEVIDEO     CLEAR     75  57  53 S13G20    29.80S
GRANITE FALLS  CLEAR     74  56  53 SE16      29.83R
CANBY          CLEAR     76  60  57 S10G17    29.80R
MARSHALL       CLEAR     75  57  53 S18       29.81R
REDWOOD FALLS  CLEAR     73  54  51 S21       29.84R
OLIVIA         PTCLDY    72  52  49 S16G22    29.84S
PIPESTONE      PTCLDY    73  61  64 S18       29.83R
WINDOM         CLEAR     72  54  53 S15G23    29.88R
WORTHINGTON    CLEAR     70  54  56 S17G24    29.87R
JACKSON        CLEAR     70  54  56 S14G24    29.89S
TRACY          CLEAR     73  56  55 S16G24    29.83R
SLAYTON        CLEAR     72  56  57 SE21G29   29.85S
$$
MNZ065>067-074>077-082>085-091>093-030300-
   South Central Minnesota

CITY           SKY/WX    TMP DP  RH WIND       PRES   REMARKS
MANKATO        PTCLDY    72  50  46 S14G23    29.89S
NEW ULM        CLEAR     72  50  46 S18       29.87R
ST JAMES       CLEAR     72  54  53 SE17G25   29.89R
FAIRMONT       PTCLDY    70  48  46 S21       29.90S
GLENCOE        CLEAR     74  53  48 SE10      29.86F
FARIBAULT      PTCLDY    70  54  56 SE9       29.93R
OWATONNA       PTCLDY    70  52  52 SE10      29.93S
WASECA         PTCLDY    70  52  52 S14       29.93S
ALBERT LEA     PTCLDY    70  52  52 S9        29.94S
$$
MNZ078>079-086>088-094>096-030300-
   Southeast Minnesota

CITY           SKY/WX    TMP DP  RH WIND       PRES   REMARKS
ROCHESTER      PTCLDY    65  50  58 SE10      29.97F
RED WING       PTCLDY    70  48  46 SE5       29.93S
STANTON        PTCLDY    71  51  48 S9        29.91S
DODGE CENTER   PTCLDY    68  52  56 S12       29.95F
WINONA         CLEAR     68  52  56 S3        29.98F
AUSTIN         PTCLDY    68  52  56 S9        29.95F
PRESTON        PTCLDY    65  49  55 SE7       29.99S
$$
ABBREVIATIONS USED IN REMARKS
   TC - TEMPERATURES IN CELSIUS
  WCI - WIND CHILL INDEX
   HX - HEAT INDEX
  VSB - VISIBILITY
$$


USA.gov is the U.S. government's official web portal to all federal, state and local government web resources and services.